Location: Taaricht
(32.5378°N, 5.4251°W)
Time: 20:05:08
(UTC+00:00)

COSMOS 2455 - Pass Details

Date: 09 April 2020
Orbit: 900 x 910 km, 67.1° (Epoch: 28 May)

Event Time Altitude Azimuth Distance (km) Brightness Sun altitude
Rises 21:49:59 0° 323° (NW) 3,540 6.9 -35.5°
Reaches altitude 10° 21:52:43 10° 315° (NW) 2,596 6.0 -35.9°
Enters shadow 21:57:06 32° 271° (W) 1,513 4.2 -36.6°
